GW1261 Weather Reports


Display with metric or nautical units.
time (UTC)temp
F
wind
direction
speed
MPH
gust
MPH
rain 1hr
in
rain 24hr
in
rain mn
in
humidity
%
barometer
mb
20260504224555 69 231 0.0 0.0 0.00 0.00 0.00 99 979.0
20260504224052 69 250 0.0 0.0 0.00 0.00 0.00 99 979.2
20260504223549 69 229 0.0 0.0 0.00 0.00 0.00 99 979.1
20260504223044 69 259 0.0 0.0 0.00 0.00 0.00 99 979.0
20260504222542 69 227 0.0 0.0 0.00 0.00 0.00 99 978.9
20260504222039 69 247 0.0 1.0 0.00 0.00 0.00 99 978.9
20260504221536 69 328 0.0 1.0 0.00 0.00 0.00 99 978.6
20260504221033 69 21 0.0 0.0 0.00 0.00 0.00 99 978.8
20260504220529 69 247 0.0 0.0 0.00 0.00 0.00 99 978.9
20260504220026 69 223 0.0 0.0 0.00 0.00 0.00 99 979.0
20260504215523 69 231 0.0 0.0 0.00 0.00 0.00 99 979.1
20260504215020 69 230 0.0 0.0 0.00 0.00 0.00 99 978.9
20260504214516 69 231 0.0 0.0 0.00 0.00 0.00 99 978.8
20260504214012 69 235 0.0 0.0 0.00 0.00 0.00 99 978.9
20260504213509 69 234 0.0 0.0 0.00 0.00 0.00 99 979.0
20260504213007 69 238 0.0 0.0 0.00 0.00 0.00 99 979.0
20260504212502 69 14 0.0 2.0 0.00 0.00 0.00 99 978.9
20260504212000 70 249 0.0 1.0 0.00 0.00 0.00 99 979.0
20260504211456 71 220 0.0 0.0 0.00 0.00 0.00 99 978.8
20260504210954 71 184 0.0 0.0 0.00 0.00 0.00 99 978.8
20260504210450 71 5 0.0 0.0 0.00 0.00 0.00 99 978.7
20260504205947 71 240 0.0 0.0 0.00 0.00 0.00 99 979.1
20260504205445 71 241 0.0 0.0 0.00 0.00 0.00 99 979.1
20260504204943 71 327 0.0 0.0 0.00 0.00 0.00 99 979.0
20260504204441 72 230 0.0 0.0 0.00 0.00 0.00 99 979.1
20260504203940 72 247 0.0 0.0 0.00 0.00 0.00 99 979.2
20260504203437 73 237 0.0 0.0 0.00 0.00 0.00 99 979.2
20260504202933 73 228 0.0 0.0 0.00 0.00 0.00 99 979.2
20260504202430 72 218 0.0 0.0 0.00 0.00 0.00 99 979.2
20260504201926 72 182 0.0 0.0 0.00 0.00 0.00 99 978.9
20260504201424 72 165 0.0 1.0 0.00 0.00 0.00 99 978.5
20260504200921 72 64 3.0 3.0 0.00 0.00 0.00 99 978.5
20260504200418 72 116 1.0 3.0 0.00 0.00 0.00 99 978.3
20260504195915 72 189 0.0 0.0 0.00 0.00 0.00 99 978.4
20260504195410 72 151 0.0 1.0 0.00 0.00 0.00 99 978.5
20260504194907 72 163 0.0 1.0 0.00 0.00 0.00 99 978.4
20260504194403 73 311 0.0 0.0 0.00 0.00 0.00 99 978.7
20260504193859 73 266 0.0 0.0 0.00 0.00 0.00 99 978.6
20260504193356 72 195 0.0 0.0 0.00 0.00 0.00 99 978.7
20260504192855 72 106 0.0 0.0 0.00 0.00 0.00 99 978.6
20260504192352 73 111 0.0 0.0 0.00 0.00 0.00 99 979.0
20260504191850 72 186 0.0 0.0 0.00 0.00 0.00 99 979.0
20260504191348 73 243 0.0 0.0 0.00 0.00 0.00 99 979.0
20260504190843 73 202 0.0 0.0 0.00 0.00 0.00 99 979.1
20260504190339 73 202 0.0 0.0 0.00 0.00 0.00 98 979.2
20260504185836 73 190 0.0 0.0 0.00 0.00 0.00 98 978.7
20260504185333 73 188 0.0 0.0 0.00 0.00 0.00 98 978.6
20260504184829 73 190 0.0 0.0 0.00 0.00 0.00 98 978.7
20260504184326 72 188 0.0 0.0 0.00 0.00 0.00 98 978.8
20260504183821 73 188 0.0 0.0 0.00 0.00 0.00 98 978.9
20260504183319 73 190 0.0 0.0 0.00 0.00 0.00 98 978.8
20260504182817 73 176 0.0 0.0 0.00 0.00 0.00 98 978.9
20260504182314 73 177 0.0 0.0 0.00 0.00 0.00 98 978.7
20260504181811 73 178 0.0 0.0 0.00 0.00 0.00 97 978.7
20260504181308 73 176 0.0 1.0 0.00 0.00 0.00 97 978.9
20260504180807 73 153 0.0 5.0 0.00 0.00 0.00 97 978.7
20260504180305 73 149 0.0 1.0 0.00 0.00 0.00 97 978.9
20260504175803 73 136 0.0 1.0 0.00 0.00 0.00 96 978.7
20260504175259 73 152 1.0 3.0 0.00 0.00 0.00 96 978.6
20260504174757 73 69 1.0 3.0 0.00 0.00 0.00 96 978.9
20260504174255 73 164 0.0 1.0 0.00 0.00 0.00 95 978.6
20260504173751 74 179 1.0 1.0 0.00 0.00 0.00 93 978.6
20260504173248 75 194 0.0 1.0 0.00 0.00 0.00 93 978.9
20260504172745 75 233 0.0 0.0 0.00 0.00 0.00 92 978.9
20260504172242 76 267 0.0 1.0 0.00 0.00 0.00 91 978.9
20260504171738 76 190 0.0 1.0 0.00 0.00 0.00 89 979.0
20260504171235 77 134 1.0 3.0 0.00 0.00 0.00 87 979.0
20260504170732 77 193 0.0 0.0 0.00 0.00 0.00 86 978.8
20260504170229 77 151 2.0 2.0 0.00 0.00 0.00 86 979.0
20260504160147 83 181 0.0 0.0 0.00 0.00 0.00 72 977.8
20260504151115 82 247 1.0 1.0 0.00 0.00 0.00 74 976.9
20260504150613 82 233 0.0 0.0 0.00 0.00 0.00 75 976.9
20260504150109 82 237 0.0 1.0 0.00 0.00 0.00 74 976.8
20260504141038 83 234 0.0 0.0 0.00 0.00 0.00 72 976.1
20260504140534 83 238 0.0 0.0 0.00 0.00 0.00 71 976.2
20260504130459 84 238 0.0 0.0 0.00 0.00 0.00 69 975.3
20260504110346 92 238 0.0 0.0 0.00 0.00 0.00 50 973.7
20260504100303 93 222 0.0 0.0 0.00 0.00 0.00 52 973.8
20260504081656 93 235 0.0 1.0 0.00 0.00 0.00 50 974.9
20260504081152 94 28 1.0 2.0 0.00 0.00 0.00 51 974.7
20260504080649 94 244 1.0 1.0 0.00 0.00 0.00 51 974.7
20260504080145 94 32 1.0 3.0 0.00 0.00 0.00 51 975.0
20260504070114 94 246 0.0 0.0 0.00 0.00 0.00 54 976.3
20260504050502 89 350 1.0 3.0 0.00 0.00 0.00 61 978.6
20260504045959 90 283 0.0 1.0 0.00 0.00 0.00 62 978.5
20260504045455 90 69 3.0 5.0 0.00 0.00 0.00 62 978.6
20260504044951 91 332 1.0 1.0 0.00 0.00 0.00 62 978.7
20260504044449 90 153 2.0 3.0 0.00 0.00 0.00 63 978.6
20260504043946 91 205 0.0 1.0 0.00 0.00 0.00 65 978.9
20260504043443 89 221 0.0 0.0 0.00 0.00 0.00 65 978.9
20260504042940 88 162 0.0 2.0 0.00 0.00 0.00 66 978.9
20260504042436 88 42 2.0 3.0 0.00 0.00 0.00 65 979.1
20260504041933 88 320 0.0 2.0 0.00 0.00 0.00 66 979.0
20260504041429 87 169 0.0 7.0 0.00 0.00 0.00 67 979.1
20260504040925 88 312 1.0 1.0 0.00 0.00 0.00 67 978.9
20260504040424 88 260 0.0 1.0 0.00 0.00 0.00 70 978.9
20260504035919 86 98 2.0 3.0 0.00 0.00 0.00 70 979.1
20260504035417 86 77 3.0 6.0 0.00 0.00 0.00 69 979.1
20260504034914 87 137 0.0 0.0 0.00 0.00 0.00 71 979.2
20260504034412 86 358 0.0 5.0 0.00 0.00 0.00 74 979.2
20260504033908 86 5 2.0 3.0 0.00 0.00 0.00 71 979.5
20260504033406 85 94 1.0 3.0 0.00 0.00 0.00 73 979.5
20260504032902 85 26 3.0 5.0 0.00 0.00 0.00 72 979.4
20260504032359 85 47 1.0 1.0 0.00 0.00 0.00 72 979.3
20260504031855 84 268 0.0 2.0 0.00 0.00 0.00 73 979.5
20260504031353 85 37 1.0 3.0 0.00 0.00 0.00 72 979.5
20260504030849 84 66 2.0 5.0 0.00 0.00 0.00 73 979.4
20260504030347 86 80 0.0 1.0 0.00 0.00 0.00 72 979.6
20260504025842 86 175 0.0 0.0 0.00 0.00 0.00 73 979.4
20260504025340 85 212 0.0 1.0 0.00 0.00 0.00 74 979.6
20260504024836 83 165 0.0 6.0 0.00 0.00 0.00 74 979.7
20260504024333 85 204 0.0 1.0 0.00 0.00 0.00 75 979.7
20260504023829 85 62 3.0 3.0 0.00 0.00 0.00 72 979.8
20260504023326 85 155 0.0 2.0 0.00 0.00 0.00 74 979.6
20260504022822 85 183 0.0 1.0 0.00 0.00 0.00 74 979.8
20260504022319 85 210 0.0 0.0 0.00 0.00 0.00 76 979.5
20260504021816 84 328 1.0 2.0 0.00 0.00 0.00 75 979.4
20260504021314 83 222 0.0 0.0 0.00 0.00 0.00 77 979.4
20260504020810 82 92 1.0 2.0 0.00 0.00 0.00 79 979.6
20260504020307 82 23 0.0 0.0 0.00 0.00 0.00 81 979.3
20260504015802 82 258 0.0 1.0 0.00 0.00 0.00 80 979.5
20260504015259 82 311 0.0 1.0 0.00 0.00 0.00 79 979.5
20260504014755 81 258 1.0 1.0 0.00 0.00 0.00 80 979.3
20260504014251 80 251 0.0 0.0 0.00 0.00 0.00 82 979.1
20260504013749 80 254 0.0 0.0 0.00 0.00 0.00 80 979.1
20260504013247 81 268 1.0 1.0 0.00 0.00 0.00 82 978.9
20260504012743 80 297 0.0 0.0 0.00 0.00 0.00 85 978.8
20260504012241 80 300 0.0 1.0 0.00 0.00 0.00 84 979.0
20260504011737 80 219 0.0 1.0 0.00 0.00 0.00 84 979.1
20260504011235 79 150 0.0 0.0 0.00 0.00 0.00 83 979.1
20260504010731 78 144 0.0 0.0 0.00 0.00 0.00 86 979.0
20260504010226 77 227 0.0 0.0 0.00 0.00 0.00 89 979.1
20260504005723 76 225 0.0 1.0 0.00 0.00 0.00 90 978.8
20260504005220 75 217 1.0 1.0 0.00 0.00 0.00 93 978.7
20260504004718 75 219 0.0 1.0 0.00 0.00 0.00 92 978.7
20260504004215 74 211 0.0 0.0 0.00 0.00 0.00 94 978.6
20260504003712 73 219 0.0 0.0 0.00 0.00 0.00 94 978.6
20260504003208 73 219 0.0 0.0 0.00 0.00 0.00 94 978.6
20260504002705 73 219 0.0 0.0 0.00 0.00 0.00 95 978.5
20260504002202 72 219 0.0 0.0 0.00 0.00 0.00 95 978.3
20260504001700 72 219 0.0 0.0 0.00 0.00 0.00 96 978.2
20260504001157 72 219 0.0 0.0 0.00 0.00 0.00 97 978.4
20260504000653 71 219 0.0 0.0 0.00 0.00 0.00 98 978.4
20260504000151 70 212 0.0 0.0 0.00 0.00 0.00 98 978.1
20260503235649 70 212 0.0 0.0 0.00 0.00 0.00 99 978.1
20260503235145 70 212 0.0 0.0 0.00 0.00 0.00 99 978.3
20260503234643 70 212 0.0 0.0 0.00 0.00 0.00 99 978.4
20260503234141 70 212 0.0 0.0 0.00 0.00 0.00 99 978.2
20260503233638 70 213 0.0 0.0 0.00 0.00 0.00 99 978.0
20260503233133 70 213 0.0 0.0 0.00 0.00 0.00 99 978.0
20260503232630 70 213 0.0 0.0 0.00 0.00 0.00 99 978.0
20260503232128 70 213 0.0 0.0 0.00 0.00 0.00 99 978.1
20260503231626 70 213 0.0 0.0 0.00 0.00 0.00 99 978.1
20260503231122 69 213 0.0 0.0 0.00 0.00 0.00 99 977.9
20260503230619 69 213 0.0 0.0 0.00 0.00 0.00 99 977.9
20260503230116 69 213 0.0 0.0 0.00 0.00 0.00 99 977.8
20260503225614 69 213 0.0 0.0 0.00 0.00 0.00 99 977.7
20260503225113 69 213 0.0 0.0 0.00 0.00 0.00 99 977.8